Volver al catálogo

FLOCK 4BE 14

ActivoCienciaSSO
NORAD 60517·PAYLOAD·🇺🇸 United States

Lanzado Aug 16, 2024 desde Vandenberg Space Force Base

Loading…

Próximos Pases (próximas 24 horas)

TLE

ActualizadoSource: CelesTrak SupGP

Época: Sep 14, 2026, 06:45 UTC

1 60517C 24149AG  26257.28133102  .00043367  00000+0  95365-3 0  2571
2 60517  97.3650 341.9709 0003244 343.9744 216.4112 15.43984933    18

Sigue FLOCK 4BE 14 en tiempo real con AllMySat

Download on the App Store